Wind_Speed
13 13 13 13 14 15 15 15 15 14 15 16 17 17 17 17 17 18 19 20 21 22 22 22 23 23 24 24 24 25 26 26 26 26 26 26 26 26 27 27 27 27 27 27
16 17 16 15 16 16 16 16 16 16 17 18 19 19 19 19 20 20 21 22 23 23 23 23 23 24 24 24 24 24 24 25 25 25 24 25 25 25 25 26 26 26 26 26
19 20 19 18 18 19 19 18 19 19 20 21 21 21 22 23 23 24 24 24 24 24 24 24 24 24 25 25 25 25 24 24 24 24 25 26 26 26 26 25 25 26 26 26
22 22 22 21 21 21 21 21 22 22 23 23 23 23 23 24 25 25 25 25 25 25 25 25 25 25 25 25 25 25 24 24 24 24 25 26 26 26 26 26 26 27 27 27
25 24 24 24 24 24 25 24 24 25 25 25 25 25 25 26 26 27 26 26 26 26 26 26 26 26 27 26 26 26 25 25 24 24 24 25 26 26 27 27 26 27 27 27
29 28 27 26 26 27 27 28 27 27 27 26 27 27 26 27 27 27 27 27 27 27 27 27 27 27 26 27 26 26 26 26 26 25 25 25 25 26 26 27 26 27 27 28
31 32 31 31 30 30 30 31 30 30 30 29 29 29 28 28 28 27 27 28 28 28 28 28 28 27 27 27 27 27 27 27 27 27 27 27 26 26 26 26 26 27 27 28
34 34 34 34 34 33 33 33 33 33 33 33 32 32 31 30 30 30 29 30 30 30 29 29 28 28 27 27 27 27 26 26 26 26 27 27 27 27 27 27 28 28 28 29
37 37 37 38 38 38 37 37 37 37 36 36 36 35 34 33 33 33 32 32 32 32 32 31 30 29 28 28 28 28 27 27 28 28 28 28 28 28 28 28 29 29 29 29
40 39 40 41 41 41 42 42 41 40 40 39 38 37 36 36 36 35 35 34 34 34 34 33 32 31 30 30 30 29 29 29 29 29 29 29 29 29 29 29 29 30 30 30
43 42 43 42 43 43 44 44 43 42 41 40 40 39 39 38 37 37 36 36 36 35 35 34 33 32 31 31 31 31 31 31 31 31 31 31 30 30 30 30 31 31 32 32
45 45 46 44 43 44 45 44 44 43 42 41 41 41 41 40 39 39 38 37 37 36 35 35 34 33 33 33 33 32 32 32 32 32 32 32 32 32 32 32 32 33 33 33
47 47 47 46 46 46 46 45 44 44 44 42 42 42 42 41 41 40 40 39 38 38 37 36 35 35 35 34 34 34 34 34 34 34 34 33 33 33 33 33 33 33 33 33
48 49 48 47 47 46 46 46 45 45 44 44 43 43 42 42 42 42 41 41 40 39 38 38 37 36 36 36 36 36 35 35 35 35 35 34 34 34 34 34 34 34 34 34
48 49 48 47 47 46 46 46 45 44 44 43 43 43 43 42 42 42 42 41 40 39 39 38 38 38 38 38 37 37 36 36 36 36 36 36 35 35 35 35 35 35 35 35
47 48 48 48 47 47 46 45 44 43 43 43 43 42 42 42 41 41 42 42 41 40 39 39 39 39 39 39 38 37 36 36 36 36 36 36 35 35 35 35 35 35 35 35
48 48 47 47 47 46 45 44 43 43 42 43 43 42 42 41 42 42 42 41 41 40 40 40 39 39 39 38 38 37 37 36 36 35 35 35 35 35 35 35 35 35 35 36
48 47 47 46 45 44 43 42 42 42 42 42 42 42 42 41 41 40 40 40 39 39 39 40 39 39 38 38 38 38 37 37 36 36 35 35 35 35 35 35 35 35 35 36
44 44 44 43 42 41 40 40 40 41 41 41 41 41 40 40 39 38 38 38 38 39 39 39 39 39 39 38 38 38 37 37 36 36 35 35 35 35 35 35 35 35 35 35
43 42 42 41 41 40 40 39 39 39 39 40 40 40 40 39 38 37 37 37 37 38 38 37 37 38 38 38 37 37 36 35 35 35 35 34 35 34 34 34 34 34 34 34
43 42 41 40 40 40 40 39 39 39 40 40 39 39 39 39 38 38 37 37 36 37 37 37 36 36 36 37 36 36 35 35 35 34 34 34 34 33 33 33 33 33 33 34
43 43 42 41 41 41 40 40 40 40 39 39 39 40 40 39 39 39 39 38 37 37 37 36 36 36 36 36 36 35 35 34 34 34 34 33 33 33 32 32 32 33 33 33
43 43 42 42 42 42 41 40 40 40 40 40 40 40 40 40 40 40 39 38 38 37 37 36 37 37 37 36 36 36 35 35 34 34 34 33 33 32 32 32 32 32 32 33
44 44 44 43 43 43 42 41 41 40 40 40 40 40 40 40 39 38 38 38 37 37 36 36 36 36 36 35 34 34 35 35 35 34 34 33 33 32 32 31 32 32 32 32
46 46 45 45 44 44 44 44 43 42 42 41 40 39 39 39 38 37 37 36 35 35 34 34 34 34 34 33 33 33 33 33 33 34 34 33 33 32 31 31 31 31 31 31
46 46 45 45 45 44 45 44 44 42 41 39 38 38 37 37 37 36 35 34 33 33 32 32 32 32 31 31 31 30 30 31 30 31 31 31 30 30 30 30 30 30 29 29
45 44 44 44 44 44 44 44 42 40 39 37 36 36 35 35 35 35 33 32 31 31 31 31 30 29 29 28 28 28 28 28 28 29 29 29 29 29 28 29 29 29 28 28
Wind_Direction
299 301 299 297 294 294 293 292 291 287 284 282 281 281 280 280 280 281 282 282 284 285 287 286 285 285 285 286 286 283 280 279 279 279 278 279 280 280 279 280 280 282 284 284
295 297 296 296 294 294 295 293 290 287 285 282 282 282 282 282 284 285 284 285 286 286 286 287 287 286 286 287 287 286 285 281 280 279 278 278 279 279 280 280 282 283 283 285
292 292 293 294 292 290 291 289 287 287 286 285 283 280 281 282 283 285 285 286 287 287 286 286 286 286 287 287 287 287 286 284 281 279 279 279 278 278 281 282 282 283 283 285
293 291 291 294 292 291 289 287 287 286 286 286 285 284 283 283 283 283 283 285 285 286 285 286 287 287 287 288 287 286 285 284 284 282 280 280 279 279 281 283 282 282 283 285
292 290 289 289 288 287 287 287 287 286 286 286 286 286 285 284 283 282 281 281 282 284 285 286 287 287 286 286 286 285 285 285 284 284 284 283 282 281 282 284 284 283 283 284
289 288 288 288 287 285 285 285 286 286 286 285 285 284 283 282 282 280 279 280 281 282 284 286 287 287 287 285 285 284 284 284 284 283 284 284 284 282 281 283 285 286 284 284
285 285 286 287 287 286 286 286 286 286 286 284 282 283 281 280 280 279 279 279 281 283 285 286 286 285 285 284 283 282 282 282 282 282 283 284 284 283 282 282 284 286 287 287
282 283 284 285 285 285 286 285 285 285 284 283 282 281 280 280 279 279 279 279 280 282 284 285 284 283 284 283 282 281 281 281 281 281 282 282 282 282 283 284 284 286 287 287
281 282 283 282 282 283 284 284 284 285 284 284 283 280 279 278 278 279 278 279 279 281 281 282 282 283 282 282 282 281 280 279 280 281 281 280 280 281 282 284 284 285 286 286
281 281 280 280 281 281 282 282 283 283 282 282 281 279 279 278 278 277 277 278 279 279 280 280 281 281 281 281 282 281 279 278 279 281 282 281 280 280 281 283 284 285 286 286
280 280 279 280 281 281 281 282 282 282 281 280 279 278 277 277 277 277 277 277 278 279 279 280 280 280 279 279 280 280 278 278 278 280 281 281 280 280 280 282 284 285 286 287
280 280 280 281 280 281 281 280 280 279 279 279 278 276 276 276 277 277 277 278 277 278 278 278 278 278 278 278 278 278 277 277 278 279 280 280 280 279 279 281 284 285 286 287
280 280 280 281 280 280 280 280 279 279 279 278 276 275 274 274 275 276 277 277 276 276 276 276 276 277 277 276 277 276 275 276 277 278 279 279 280 280 280 280 282 284 285 286
279 280 280 281 280 281 281 282 282 281 280 278 277 276 274 274 274 275 276 276 276 275 275 274 274 274 274 274 275 276 275 276 277 277 277 278 279 280 281 280 281 283 283 285
279 280 281 281 282 282 283 283 283 281 280 278 277 276 274 273 274 275 275 276 275 274 273 273 273 273 273 274 274 275 275 276 277 276 275 276 278 279 280 280 281 282 282 283
278 279 280 281 282 282 282 282 282 281 280 278 276 274 273 273 273 274 275 275 273 272 271 272 273 273 273 273 273 275 275 276 276 276 275 276 277 278 279 280 280 281 281 282
278 279 280 282 282 282 282 281 281 280 279 277 276 275 273 273 273 274 274 274 273 272 271 271 271 271 272 272 272 273 274 275 276 276 276 276 276 277 278 279 280 280 281 282
279 280 280 282 282 281 281 280 280 279 278 277 276 275 274 274 274 275 274 273 272 271 271 270 269 269 269 270 271 271 273 274 274 274 275 276 275 275 277 278 279 280 281 283
278 280 281 280 280 279 279 280 280 279 278 278 276 275 274 275 275 275 274 273 271 270 269 269 269 268 269 269 269 270 271 272 272 272 273 275 274 274 275 276 277 279 281 283
278 279 280 279 279 278 279 279 279 279 278 277 276 276 275 274 275 274 274 273 273 271 270 268 268 269 268 268 268 268 269 270 270 270 271 273 274 274 274 275 277 279 281 282
276 277 277 277 277 278 279 279 279 278 278 277 277 276 275 274 274 274 273 273 273 271 269 268 268 269 270 269 269 268 268 269 270 270 271 272 274 274 274 275 277 279 280 281
276 276 275 276 276 277 277 278 278 278 277 276 276 275 274 273 273 274 274 273 272 270 269 269 269 270 271 271 270 269 269 270 270 270 270 272 273 273 274 275 277 278 279 281
275 274 274 274 274 274 275 276 277 277 276 276 275 275 273 272 272 272 272 272 271 269 269 269 270 270 271 271 269 267 267 268 268 268 269 270 271 272 273 274 276 278 279 281
274 273 272 272 272 272 273 273 274 275 275 274 274 274 273 272 271 271 272 271 271 269 269 269 270 270 271 270 269 267 265 265 266 267 268 268 270 271 272 274 276 278 280 283
273 272 271 270 270 271 271 271 273 274 275 274 273 273 272 272 272 271 272 272 271 269 268 269 269 270 270 270 269 267 264 264 264 265 266 267 267 269 271 274 276 278 280 283
272 271 269 268 270 271 271 272 273 274 274 273 272 271 271 271 271 272 272 271 269 268 267 268 269 270 270 270 268 266 264 263 263 264 264 265 266 268 271 273 276 278 280 283
272 272 271 270 270 271 271 272 273 273 272 272 271 270 270 270 270 270 270 268 266 266 266 267 268 269 269 269 267 265 263 262 262 262 263 265 267 268 270 273 275 277 280 282
Height
5703 5701 5700 5699 5697 5695 5693 5692 5691 5691 5689 5688 5685 5684 5683 5682 5681 5680 5678 5677 5675 5674 5672 5670 5668 5667 5665 5663 5660 5658 5656 5654 5653 5651 5650 5648 5647 5646 5644 5643 5641 5639 5638 5636
5700 5698 5695 5694 5693 5690 5689 5687 5686 5684 5683 5682 5680 5678 5677 5676 5675 5674 5672 5671 5669 5667 5665 5663 5661 5659 5658 5656 5653 5651 5649 5647 5646 5644 5643 5641 5640 5639 5637 5635 5634 5632 5631 5629
5695 5692 5690 5690 5688 5685 5684 5682 5680 5678 5678 5675 5674 5672 5671 5670 5669 5667 5666 5664 5662 5660 5658 5656 5654 5652 5650 5648 5646 5644 5642 5640 5638 5637 5635 5634 5633 5632 5630 5628 5627 5625 5623 5621
5687 5687 5685 5686 5682 5680 5677 5676 5674 5672 5670 5669 5667 5666 5664 5663 5661 5659 5658 5656 5655 5653 5651 5649 5647 5645 5643 5641 5639 5637 5635 5633 5631 5629 5628 5626 5625 5624 5623 5621 5619 5618 5616 5614
5680 5678 5677 5677 5675 5672 5670 5669 5667 5665 5663 5661 5660 5659 5657 5655 5653 5652 5650 5649 5647 5645 5644 5642 5640 5638 5636 5634 5632 5630 5628 5626 5624 5622 5621 5619 5617 5616 5615 5613 5612 5610 5608 5607
5672 5670 5669 5670 5667 5663 5663 5661 5659 5657 5655 5654 5652 5651 5651 5648 5646 5644 5642 5641 5639 5637 5636 5634 5632 5630 5628 5626 5624 5623 5620 5619 5617 5615 5613 5611 5610 5608 5607 5606 5604 5603 5601 5599
5664 5660 5660 5660 5657 5655 5655 5653 5650 5648 5647 5645 5644 5643 5642 5639 5637 5636 5634 5632 5631 5629 5627 5626 5624 5622 5620 5618 5616 5614 5613 5611 5609 5608 5606 5604 5602 5601 5600 5598 5597 5595 5593 5591
5654 5652 5653 5649 5647 5646 5645 5642 5640 5639 5637 5636 5634 5633 5631 5629 5628 5626 5625 5623 5622 5620 5619 5617 5615 5613 5611 5610 5608 5606 5604 5603 5601 5600 5598 5597 5595 5593 5592 5590 5589 5587 5585 5583
5644 5645 5641 5638 5635 5634 5633 5631 5630 5628 5627 5625 5624 5623 5621 5620 5618 5616 5615 5613 5612 5611 5609 5608 5606 5604 5602 5601 5599 5597 5596 5594 5593 5592 5590 5588 5587 5585 5584 5582 5580 5578 5576 5574
5631 5631 5628 5625 5624 5622 5620 5619 5618 5616 5615 5613 5612 5611 5610 5609 5607 5606 5604 5603 5601 5600 5599 5597 5596 5594 5593 5591 5589 5588 5587 5585 5584 5582 5581 5579 5578 5576 5575 5573 5571 5569 5567 5565
5617 5617 5615 5614 5612 5610 5608 5606 5605 5604 5602 5600 5599 5598 5597 5596 5595 5594 5593 5592 5590 5589 5588 5587 5585 5584 5582 5581 5580 5578 5577 5575 5574 5573 5571 5569 5568 5567 5565 5564 5562 5560 5558 5555
5604 5603 5600 5601 5599 5596 5594 5593 5591 5590 5589 5587 5585 5584 5583 5583 5582 5582 5581 5579 5578 5577 5576 5575 5574 5573 5571 5570 5569 5568 5567 5565 5564 5562 5561 5559 5558 5557 5555 5554 5552 5550 5547 5545
5589 5588 5586 5586 5584 5582 5580 5579 5577 5576 5575 5574 5572 5571 5570 5569 5569 5568 5567 5566 5565 5564 5564 5563 5562 5561 5560 5559 5558 5557 5556 5555 5553 5552 5550 5549 5548 5546 5545 5543 5541 5539 5537 5535
5574 5573 5572 5571 5569 5568 5566 5565 5564 5562 5561 5560 5558 5557 5556 5555 5555 5554 5554 5553 5552 5551 5551 5550 5550 5549 5548 5547 5546 5545 5544 5543 5542 5541 5539 5538 5537 5535 5534 5532 5531 5529 5527 5525
5560 5558 5558 5557 5556 5554 5552 5551 5549 5548 5547 5545 5544 5543 5542 5542 5541 5540 5540 5539 5539 5538 5538 5537 5537 5537 5536 5535 5534 5533 5532 5532 5530 5529 5528 5527 5526 5524 5523 5522 5520 5518 5516 5514
5546 5544 5543 5542 5541 5540 5538 5537 5535 5534 5532 5531 5530 5529 5528 5527 5527 5527 5526 5525 5525 5525 5524 5524 5524 5524 5523 5522 5522 5521 5521 5520 5519 5517 5516 5515 5514 5513 5512 5511 5509 5507 5505 5503
5531 5530 5529 5528 5526 5524 5523 5522 5521 5519 5518 5517 5516 5515 5514 5513 5513 5513 5512 5511 5511 5511 5511 5511 5511 5510 5510 5509 5509 5509 5508 5508 5507 5506 5505 5504 5503 5502 5501 5499 5498 5496 5495 5493
5516 5515 5514 5513 5511 5510 5509 5508 5506 5505 5504 5503 5502 5501 5500 5500 5499 5498 5498 5498 5497 5497 5497 5497 5497 5497 5496 5496 5496 5496 5495 5495 5494 5494 5493 5492 5491 5490 5489 5488 5487 5485 5484 5482
5502 5501 5500 5499 5497 5496 5495 5494 5493 5491 5490 5489 5488 5487 5487 5486 5485 5485 5484 5484 5484 5484 5484 5483 5483 5483 5483 5483 5483 5483 5483 5482 5482 5482 5481 5480 5480 5479 5478 5477 5476 5474 5473 5471
5488 5487 5486 5485 5484 5483 5482 5480 5479 5478 5477 5476 5475 5474 5473 5473 5472 5472 5472 5471 5471 5470 5470 5471 5470 5470 5470 5470 5470 5470 5470 5470 5470 5470 5469 5469 5468 5467 5466 5466 5465 5463 5462 5460
5474 5473 5472 5471 5470 5469 5468 5467 5466 5465 5464 5462 5462 5461 5460 5460 5459 5459 5458 5459 5459 5457 5457 5458 5458 5458 5458 5458 5458 5458 5458 5458 5458 5458 5458 5457 5457 5456 5455 5454 5454 5453 5451 5450
5459 5459 5458 5457 5456 5456 5455 5454 5452 5451 5450 5449 5448 5447 5447 5447 5446 5446 5446 5445 5446 5445 5445 5445 5445 5445 5445 5445 5445 5446 5446 5446 5446 5446 5446 5446 5446 5445 5445 5444 5443 5442 5441 5439
5445 5444 5444 5443 5442 5441 5441 5440 5438 5437 5436 5436 5435 5434 5433 5433 5433 5432 5433 5433 5432 5432 5432 5433 5433 5432 5432 5432 5433 5433 5434 5434 5434 5434 5434 5434 5434 5434 5434 5433 5432 5432 5430 5429
5430 5429 5429 5428 5427 5426 5426 5426 5424 5423 5422 5422 5421 5420 5419 5419 5419 5419 5418 5419 5419 5419 5419 5420 5420 5420 5420 5420 5420 5421 5421 5422 5422 5423 5423 5423 5423 5423 5423 5423 5422 5421 5420 5418
5415 5414 5414 5413 5412 5412 5411 5411 5410 5410 5409 5408 5408 5407 5406 5405 5405 5406 5406 5406 5406 5406 5407 5407 5408 5408 5408 5408 5408 5409 5409 5410 5410 5411 5412 5412 5413 5413 5413 5412 5412 5411 5410 5408
5399 5398 5398 5398 5397 5397 5396 5395 5395 5395 5394 5394 5394 5394 5393 5393 5392 5393 5393 5393 5394 5394 5395 5395 5396 5396 5396 5396 5397 5397 5398 5398 5399 5400 5400 5401 5402 5402 5402 5402 5402 5401 5400 5398
5384 5383 5383 5383 5384 5382 5381 5381 5380 5381 5381 5380 5381 5381 5381 5381 5380 5380 5381 5381 5382 5383 5383 5384 5384 5385 5385 5386 5386 5386 5387 5388 5389 5390 5391 5391 5392 5392 5392 5392 5391 5391 5390 5389